Time,TemperatureF,DewpointF,PressureIn,WindDirection,WindDirectionDegrees,WindSpeedMPH,WindSpeedGustMPH,Humidity,HourlyPrecipIn,Conditions,Clouds,dailyrainin,SoftwareType,DateUTC
2013-01-21 00:00:00,13.5,7.6,30.47,West,259,1.0,1.0,77,0.00,,,0.00,Wunderground v.1.15,2013-01-21 06:00:00,
2013-01-21 00:05:00,13.5,7.6,30.48,West,269,1.0,2.0,77,0.00,,,0.00,Wunderground v.1.15,2013-01-21 06:05:00,
2013-01-21 00:15:00,13.7,7.8,30.48,WNW,302,3.0,6.0,77,0.00,,,0.00,Wunderground v.1.15,2013-01-21 06:15:00,
2013-01-21 00:25:00,14.1,8.5,30.48,NW,309,5.0,6.0,78,0.00,,,0.00,Wunderground v.1.15,2013-01-21 06:25:00,
2013-01-21 00:35:00,14.4,8.8,30.47,NW,308,5.0,5.0,78,0.00,,,0.00,Wunderground v.1.15,2013-01-21 06:35:00,
2013-01-21 00:45:00,14.6,9.0,30.48,NW,314,4.0,6.0,78,0.00,,,0.00,Wunderground v.1.15,2013-01-21 06:45:00,
2013-01-21 00:55:00,14.8,8.9,30.47,NNW,344,7.0,7.0,77,0.00,,,0.00,Wunderground v.1.15,2013-01-21 06:55:00,
2013-01-21 01:05:00,15.0,9.1,30.47,WNW,294,5.0,6.0,77,0.00,,,0.00,Wunderground v.1.15,2013-01-21 07:05:00,
2013-01-21 01:15:00,15.1,9.2,30.47,WNW,299,5.0,12.0,77,0.00,,,0.00,Wunderground v.1.15,2013-01-21 07:15:00,
2013-01-21 01:20:00,15.2,9.3,30.47,WNW,292,6.0,9.0,77,0.00,,,0.00,Wunderground v.1.15,2013-01-21 07:20:00,
2013-01-21 01:25:00,15.2,9.0,30.48,NW,321,6.0,9.0,76,0.00,,,0.00,Wunderground v.1.15,2013-01-21 07:25:00,
2013-01-21 01:35:00,15.1,8.6,30.47,NW,315,7.0,11.0,75,0.00,,,0.00,Wunderground v.1.15,2013-01-21 07:35:00,
2013-01-21 01:40:00,15.1,8.6,30.47,NNW,327,9.0,10.0,75,0.00,,,0.00,Wunderground v.1.15,2013-01-21 07:40:00,
2013-01-21 01:45:00,15.1,8.3,30.47,NW,314,8.0,10.0,74,0.00,,,0.00,Wunderground v.1.15,2013-01-21 07:45:00,
2013-01-21 01:50:00,15.0,8.2,30.47,NW,326,7.0,9.0,74,0.00,,,0.00,Wunderground v.1.15,2013-01-21 07:50:00,
2013-01-21 01:55:00,14.9,7.8,30.47,WNW,289,8.0,9.0,73,0.00,,,0.00,Wunderground v.1.15,2013-01-21 07:55:00,
2013-01-21 02:05:00,14.4,7.0,30.47,NW,316,10.0,15.0,72,0.00,,,0.00,Wunderground v.1.15,2013-01-21 08:05:00,
2013-01-21 02:15:00,14.0,6.3,30.48,NW,312,9.0,12.0,71,0.00,,,0.00,Wunderground v.1.15,2013-01-21 08:15:00,
2013-01-21 02:20:00,13.8,6.1,30.48,NW,316,9.0,11.0,71,0.00,,,0.00,Wunderground v.1.15,2013-01-21 08:20:00,
2013-01-21 02:25:00,13.7,6.0,30.48,NW,309,10.0,11.0,71,0.00,,,0.00,Wunderground v.1.15,2013-01-21 08:25:00,
2013-01-21 02:35:00,13.6,5.6,30.48,NNW,333,8.0,16.0,70,0.00,,,0.00,Wunderground v.1.15,2013-01-21 08:35:00,
2013-01-21 02:40:00,13.5,5.5,30.48,NNW,331,8.0,14.0,70,0.00,,,0.00,Wunderground v.1.15,2013-01-21 08:40:00,
2013-01-21 02:45:00,13.4,5.1,30.48,WNW,299,9.0,14.0,69,0.00,,,0.00,Wunderground v.1.15,2013-01-21 08:45:00,
2013-01-21 02:50:00,13.3,5.0,30.48,North,355,10.0,11.0,69,0.00,,,0.00,Wunderground v.1.15,2013-01-21 08:50:00,
2013-01-21 02:55:00,13.3,5.0,30.48,North,5,9.0,11.0,69,0.00,,,0.00,Wunderground v.1.15,2013-01-21 08:55:00,
2013-01-21 03:00:00,13.3,5.0,30.48,NNW,332,8.0,14.0,69,0.00,,,0.00,Wunderground v.1.15,2013-01-21 09:00:00,
2013-01-21 03:05:00,13.1,4.5,30.49,NW,313,10.0,14.0,68,0.00,,,0.00,Wunderground v.1.15,2013-01-21 09:05:00,
2013-01-21 03:15:00,12.7,3.1,30.49,WNW,290,9.0,11.0,65,0.00,,,0.00,Wunderground v.1.15,2013-01-21 09:15:00,
2013-01-21 03:25:00,12.5,2.6,30.49,WNW,294,8.0,9.0,64,0.00,,,0.00,Wunderground v.1.15,2013-01-21 09:25:00,
2013-01-21 03:35:00,12.2,2.0,30.48,West,279,9.0,10.0,63,0.00,,,0.00,Wunderground v.1.15,2013-01-21 09:35:00,
2013-01-21 03:45:00,11.9,1.4,30.48,NW,325,10.0,13.0,62,0.00,,,0.00,Wunderground v.1.15,2013-01-21 09:45:00,
2013-01-21 03:50:00,11.7,1.2,30.48,NNW,336,10.0,10.0,62,0.00,,,0.00,Wunderground v.1.15,2013-01-21 09:50:00,
2013-01-21 03:55:00,11.7,1.2,30.48,NW,304,7.0,14.0,62,0.00,,,0.00,Wunderground v.1.15,2013-01-21 09:55:00,
2013-01-21 04:05:00,11.5,1.0,30.48,NNW,327,10.0,10.0,62,0.00,,,0.00,Wunderground v.1.15,2013-01-21 10:05:00,
2013-01-21 04:15:00,11.4,0.9,30.48,WNW,293,5.0,17.0,62,0.00,,,0.00,Wunderground v.1.15,2013-01-21 10:15:00,
2013-01-21 04:25:00,11.2,0.4,30.48,NW,310,12.0,12.0,61,0.00,,,0.00,Wunderground v.1.15,2013-01-21 10:25:00,
2013-01-21 04:30:00,11.2,0.0,30.47,NW,311,9.0,9.0,60,0.00,,,0.00,Wunderground v.1.15,2013-01-21 10:30:00,
2013-01-21 04:35:00,11.1,-0.1,30.48,NNW,328,8.0,9.0,60,0.00,,,0.00,Wunderground v.1.15,2013-01-21 10:35:00,
2013-01-21 04:45:00,11.0,-0.9,30.48,WNW,298,10.0,14.0,58,0.00,,,0.00,Wunderground v.1.15,2013-01-21 10:45:00,
2013-01-21 04:55:00,11.0,-1.3,30.48,NW,321,8.0,12.0,57,0.00,,,0.00,Wunderground v.1.15,2013-01-21 10:55:00,
2013-01-21 05:00:00,10.9,-1.4,30.48,NNW,340,9.0,9.0,57,0.00,,,0.00,Wunderground v.1.15,2013-01-21 11:00:00,
2013-01-21 05:05:00,10.7,-1.6,30.49,NNW,339,9.0,9.0,57,0.00,,,0.00,Wunderground v.1.15,2013-01-21 11:05:00,
2013-01-21 05:15:00,10.0,-3.0,30.48,WNW,298,9.0,13.0,55,0.00,,,0.00,Wunderground v.1.15,2013-01-21 11:15:00,
2013-01-21 05:20:00,9.8,-3.5,30.48,NW,316,11.0,11.0,54,0.00,,,0.00,Wunderground v.1.15,2013-01-21 11:20:00,
2013-01-21 05:25:00,9.5,-4.2,30.48,NNW,342,10.0,12.0,53,0.00,,,0.00,Wunderground v.1.15,2013-01-21 11:25:00,
2013-01-21 05:30:00,9.4,-4.3,30.48,WNW,296,8.0,8.0,53,0.00,,,0.00,Wunderground v.1.15,2013-01-21 11:30:00,
2013-01-21 05:40:00,9.1,-3.8,30.48,North,349,8.0,9.0,55,0.00,,,0.00,Wunderground v.1.15,2013-01-21 11:40:00,
2013-01-21 05:50:00,8.6,-3.9,30.49,WNW,299,10.0,10.0,56,0.00,,,0.00,Wunderground v.1.15,2013-01-21 11:50:00,
2013-01-21 05:55:00,8.5,-3.6,30.49,NW,320,8.0,10.0,57,0.00,,,0.00,Wunderground v.1.15,2013-01-21 11:55:00,
2013-01-21 06:00:00,8.3,-3.8,30.50,NW,323,7.0,15.0,57,0.00,,,0.00,Wunderground v.1.15,2013-01-21 12:00:00,
2013-01-21 06:05:00,8.1,-4.0,30.49,NNW,344,9.0,15.0,57,0.00,,,0.00,Wunderground v.1.15,2013-01-21 12:05:00,
2013-01-21 06:15:00,7.8,-4.3,30.49,NW,314,6.0,9.0,57,0.00,,,0.00,Wunderground v.1.15,2013-01-21 12:15:00,
2013-01-21 06:20:00,7.6,-4.9,30.49,NW,305,9.0,9.0,56,0.00,,,0.00,Wunderground v.1.15,2013-01-21 12:20:00,
2013-01-21 06:25:00,7.4,-5.4,30.50,NW,313,11.0,11.0,55,0.00,,,0.00,Wunderground v.1.15,2013-01-21 12:25:00,
2013-01-21 06:35:00,7.1,-6.1,30.50,NNW,337,10.0,12.0,54,0.00,,,0.00,Wunderground v.1.15,2013-01-21 12:35:00,
2013-01-21 06:45:00,7.0,-5.8,30.50,NNW,328,8.0,9.0,55,0.00,,,0.00,Wunderground v.1.15,2013-01-21 12:45:00,
2013-01-21 06:55:00,6.9,-5.5,30.50,WNW,296,7.0,9.0,56,0.00,,,0.00,Wunderground v.1.15,2013-01-21 12:55:00,
2013-01-21 07:00:00,6.8,-5.6,30.50,NNW,335,7.0,7.0,56,0.00,,,0.00,Wunderground v.1.15,2013-01-21 13:00:00,
2013-01-21 07:05:00,6.5,-5.5,30.51,North,360,8.0,8.0,57,0.00,,,0.00,Wunderground v.1.15,2013-01-21 13:05:00,
2013-01-21 07:15:00,6.0,-5.6,30.51,NW,311,7.0,9.0,58,0.00,,,0.00,Wunderground v.1.15,2013-01-21 13:15:00,
2013-01-21 07:25:00,5.6,-5.7,30.51,NW,314,5.0,10.0,59,0.00,,,0.00,Wunderground v.1.15,2013-01-21 13:25:00,
2013-01-21 07:30:00,5.4,-5.8,30.51,WNW,297,7.0,9.0,59,0.00,,,0.00,Wunderground v.1.15,2013-01-21 13:30:00,
2013-01-21 07:35:00,5.4,-5.8,30.51,NNW,344,8.0,9.0,59,0.00,,,0.00,Wunderground v.1.15,2013-01-21 13:35:00,
2013-01-21 07:40:00,5.4,-5.5,30.51,WNW,299,6.0,6.0,60,0.00,,,0.00,Wunderground v.1.15,2013-01-21 13:40:00,
2013-01-21 07:45:00,5.4,-5.5,30.51,NW,314,6.0,6.0,60,0.00,,,0.00,Wunderground v.1.15,2013-01-21 13:45:00,
2013-01-21 07:50:00,5.4,-5.5,30.51,NW,318,6.0,7.0,60,0.00,,,0.00,Wunderground v.1.15,2013-01-21 13:50:00,
2013-01-21 08:00:00,5.3,-5.2,30.51,NNE,22,5.0,5.0,61,0.00,,,0.00,Wunderground v.1.15,2013-01-21 14:00:00,
2013-01-21 08:05:00,5.2,-5.3,30.51,WNW,300,5.0,5.0,61,0.00,,,0.00,Wunderground v.1.15,2013-01-21 14:05:00,
2013-01-21 08:15:00,5.0,-5.5,30.51,NW,309,5.0,11.0,61,0.00,,,0.00,Wunderground v.1.15,2013-01-21 14:15:00,
2013-01-21 08:20:00,5.0,-5.5,30.51,NW,323,6.0,6.0,61,0.00,,,0.00,Wunderground v.1.15,2013-01-21 14:20:00,
2013-01-21 08:30:00,4.9,-5.3,30.52,WNW,302,5.0,6.0,62,0.00,,,0.00,Wunderground v.1.15,2013-01-21 14:30:00,
2013-01-21 08:35:00,5.0,-5.2,30.52,NW,313,5.0,6.0,62,0.00,,,0.00,Wunderground v.1.15,2013-01-21 14:35:00,
2013-01-21 08:45:00,5.2,-4.7,30.52,NW,311,4.0,4.0,63,0.00,,,0.00,Wunderground v.1.15,2013-01-21 14:45:00,
2013-01-21 08:55:00,5.3,-4.9,30.52,NW,319,6.0,7.0,62,0.00,,,0.00,Wunderground v.1.15,2013-01-21 14:55:00,
2013-01-21 09:00:00,5.4,-4.8,30.52,WNW,288,7.0,7.0,62,0.00,,,0.00,Wunderground v.1.15,2013-01-21 15:00:00,
2013-01-21 09:05:00,5.4,-4.8,30.52,WNW,303,7.0,8.0,62,0.00,,,0.00,Wunderground v.1.15,2013-01-21 15:05:00,
2013-01-21 09:15:00,5.6,-5.0,30.53,North,5,8.0,10.0,61,0.00,,,0.00,Wunderground v.1.15,2013-01-21 15:15:00,
2013-01-21 09:20:00,5.6,-5.3,30.53,NW,309,8.0,12.0,60,0.00,,,0.00,Wunderground v.1.15,2013-01-21 15:20:00,
2013-01-21 09:25:00,5.6,-5.3,30.53,NNW,333,9.0,12.0,60,0.00,,,0.00,Wunderground v.1.15,2013-01-21 15:25:00,
2013-01-21 09:30:00,5.7,-5.2,30.53,NW,319,7.0,7.0,60,0.00,,,0.00,Wunderground v.1.15,2013-01-21 15:30:00,
2013-01-21 09:35:00,6.0,-4.6,30.53,NW,306,6.0,7.0,61,0.00,,,0.00,Wunderground v.1.15,2013-01-21 15:35:00,
2013-01-21 09:45:00,6.4,-4.2,30.54,NW,310,5.0,6.0,61,0.00,,,0.00,Wunderground v.1.15,2013-01-21 15:45:00,
2013-01-21 09:50:00,6.8,-3.8,30.53,NW,313,3.0,3.0,61,0.00,,,0.00,Wunderground v.1.15,2013-01-21 15:50:00,
2013-01-21 09:55:00,7.0,-4.0,30.53,WNW,302,4.0,4.0,60,0.00,,,0.00,Wunderground v.1.15,2013-01-21 15:55:00,
2013-01-21 10:00:00,7.3,-3.7,30.54,NNE,28,4.0,4.0,60,0.00,,,0.00,Wunderground v.1.15,2013-01-21 16:00:00,
2013-01-21 10:05:00,7.3,-3.7,30.54,NW,307,4.0,4.0,60,0.00,,,0.00,Wunderground v.1.15,2013-01-21 16:05:00,
2013-01-21 10:15:00,7.4,-4.0,30.54,WNW,300,4.0,7.0,59,0.00,,,0.00,Wunderground v.1.15,2013-01-21 16:15:00,
2013-01-21 10:20:00,7.5,-3.9,30.54,NW,316,5.0,5.0,59,0.00,,,0.00,Wunderground v.1.15,2013-01-21 16:20:00,
2013-01-21 10:25:00,7.6,-4.1,30.54,WNW,294,5.0,5.0,58,0.00,,,0.00,Wunderground v.1.15,2013-01-21 16:25:00,
2013-01-21 10:30:00,7.6,-4.1,30.54,NW,321,5.0,6.0,58,0.00,,,0.00,Wunderground v.1.15,2013-01-21 16:30:00,
2013-01-21 10:40:00,7.7,-4.0,30.54,WNW,299,4.0,6.0,58,0.00,,,0.00,Wunderground v.1.15,2013-01-21 16:40:00,
2013-01-21 10:45:00,7.7,-4.4,30.54,NW,308,6.0,6.0,57,0.00,,,0.00,Wunderground v.1.15,2013-01-21 16:45:00,
2013-01-21 10:50:00,7.8,-3.9,30.54,NW,320,6.0,12.0,58,0.00,,,0.00,Wunderground v.1.15,2013-01-21 16:50:00,
2013-01-21 10:55:00,7.8,-4.3,30.54,NW,308,6.0,12.0,57,0.00,,,0.00,Wunderground v.1.15,2013-01-21 16:55:00,
2013-01-21 11:05:00,7.7,-4.8,30.53,WNW,300,7.0,8.0,56,0.00,,,0.00,Wunderground v.1.15,2013-01-21 17:05:00,
2013-01-21 11:15:00,7.8,-4.7,30.53,North,355,5.0,11.0,56,0.00,,,0.00,Wunderground v.1.15,2013-01-21 17:15:00,
2013-01-21 11:25:00,8.0,-4.9,30.53,North,349,5.0,5.0,55,0.00,,,0.00,Wunderground v.1.15,2013-01-21 17:25:00,
2013-01-21 11:30:00,8.0,-4.9,30.53,NW,322,5.0,10.0,55,0.00,,,0.00,Wunderground v.1.15,2013-01-21 17:30:00,
2013-01-21 11:40:00,8.3,-4.6,30.53,WNW,300,6.0,6.0,55,0.00,,,0.00,Wunderground v.1.15,2013-01-21 17:40:00,
2013-01-21 11:45:00,8.5,-4.4,30.53,NW,307,5.0,6.0,55,0.00,,,0.00,Wunderground v.1.15,2013-01-21 17:45:00,
2013-01-21 11:50:00,8.5,-4.4,30.53,West,269,4.0,4.0,55,0.00,,,0.00,Wunderground v.1.15,2013-01-21 17:50:00,
2013-01-21 11:55:00,8.8,-3.7,30.52,NW,314,4.0,6.0,56,0.00,,,0.00,Wunderground v.1.15,2013-01-21 17:55:00,
2013-01-21 12:00:00,8.7,-4.2,30.52,NNW,341,5.0,5.0,55,0.00,,,0.00,Wunderground v.1.15,2013-01-21 18:00:00,
2013-01-21 12:05:00,8.9,-4.0,30.52,West,274,6.0,6.0,55,0.00,,,0.00,Wunderground v.1.15,2013-01-21 18:05:00,
2013-01-21 12:15:00,8.9,-4.0,30.52,WSW,257,5.0,6.0,55,0.00,,,0.00,Wunderground v.1.15,2013-01-21 18:15:00,
2013-01-21 12:20:00,9.2,-3.3,30.52,West,272,5.0,5.0,56,0.00,,,0.00,Wunderground v.1.15,2013-01-21 18:20:00,
2013-01-21 12:30:00,9.5,-3.4,30.50,NW,309,4.0,7.0,55,0.00,,,0.00,Wunderground v.1.15,2013-01-21 18:30:00,
2013-01-21 12:35:00,9.7,-3.3,30.50,NW,317,4.0,7.0,55,0.00,,,0.00,Wunderground v.1.15,2013-01-21 18:35:00,
2013-01-21 12:40:00,9.9,-3.1,30.50,WNW,295,5.0,5.0,55,0.00,,,0.00,Wunderground v.1.15,2013-01-21 18:40:00,
2013-01-21 12:50:00,10.1,-3.7,30.50,NW,316,5.0,5.0,53,0.00,,,0.00,Wunderground v.1.15,2013-01-21 18:50:00,
2013-01-21 12:55:00,10.5,-3.3,30.49,WNW,296,7.0,7.0,53,0.00,,,0.00,Wunderground v.1.15,2013-01-21 18:55:00,
2013-01-21 13:05:00,10.7,-3.5,30.49,West,279,5.0,7.0,52,0.00,,,0.00,Wunderground v.1.15,2013-01-21 19:05:00,
2013-01-21 13:15:00,10.8,-3.8,30.49,NNW,348,6.0,6.0,51,0.00,,,0.00,Wunderground v.1.15,2013-01-21 19:15:00,
2013-01-21 13:20:00,10.7,-3.9,30.49,WNW,303,5.0,6.0,51,0.00,,,0.00,Wunderground v.1.15,2013-01-21 19:20:00,
2013-01-21 13:25:00,10.7,-3.9,30.49,NW,311,5.0,6.0,51,0.00,,,0.00,Wunderground v.1.15,2013-01-21 19:25:00,
2013-01-21 13:30:00,10.7,-3.9,30.48,West,281,7.0,7.0,51,0.00,,,0.00,Wunderground v.1.15,2013-01-21 19:30:00,
2013-01-21 13:35:00,10.6,-4.0,30.48,NW,320,6.0,7.0,51,0.00,,,0.00,Wunderground v.1.15,2013-01-21 19:35:00,
2013-01-21 13:40:00,10.7,-3.9,30.48,WSW,242,4.0,4.0,51,0.00,,,0.00,Wunderground v.1.15,2013-01-21 19:40:00,
2013-01-21 13:50:00,11.3,-3.3,30.48,West,259,5.0,5.0,51,0.00,,,0.00,Wunderground v.1.15,2013-01-21 19:50:00,
2013-01-21 14:00:00,12.4,-2.7,30.49,WNW,283,4.0,9.0,50,0.00,,,0.00,Wunderground v.1.15,2013-01-21 20:00:00,
2013-01-21 14:05:00,12.6,-3.0,30.48,West,271,6.0,9.0,49,0.00,,,0.00,Wunderground v.1.15,2013-01-21 20:05:00,
2013-01-21 14:15:00,12.3,-3.3,30.47,WNW,295,5.0,6.0,49,0.00,,,0.00,Wunderground v.1.15,2013-01-21 20:15:00,
2013-01-21 14:20:00,13.2,-2.4,30.48,West,281,4.0,4.0,49,0.00,,,0.00,Wunderground v.1.15,2013-01-21 20:20:00,
2013-01-21 14:25:00,13.3,-3.2,30.48,WSW,252,3.0,4.0,47,0.00,,,0.00,Wunderground v.1.15,2013-01-21 20:25:00,
2013-01-21 14:30:00,12.9,-3.1,30.47,NW,305,4.0,9.0,48,0.00,,,0.00,Wunderground v.1.15,2013-01-21 20:30:00,
2013-01-21 14:40:00,12.3,-3.7,30.47,NW,304,5.0,5.0,48,0.00,,,0.00,Wunderground v.1.15,2013-01-21 20:40:00,
2013-01-21 14:45:00,12.4,-3.6,30.47,NNW,327,6.0,6.0,48,0.00,,,0.00,Wunderground v.1.15,2013-01-21 20:45:00,
2013-01-21 14:55:00,12.2,-3.8,30.47,NW,313,5.0,6.0,48,0.00,,,0.00,Wunderground v.1.15,2013-01-21 20:55:00,
2013-01-21 15:05:00,11.7,-3.8,30.47,WNW,286,4.0,4.0,49,0.00,,,0.00,Wunderground v.1.15,2013-01-21 21:05:00,
2013-01-21 15:15:00,11.2,-4.3,30.47,WNW,297,5.0,6.0,49,0.00,,,0.00,Wunderground v.1.15,2013-01-21 21:15:00,
2013-01-21 15:25:00,11.2,-3.9,30.47,NNW,327,4.0,5.0,50,0.00,,,0.00,Wunderground v.1.15,2013-01-21 21:25:00,
2013-01-21 15:35:00,11.9,-2.8,30.47,West,278,3.0,6.0,51,0.00,,,0.00,Wunderground v.1.15,2013-01-21 21:35:00,
2013-01-21 15:40:00,12.4,-2.7,30.47,WNW,291,3.0,4.0,50,0.00,,,0.00,Wunderground v.1.15,2013-01-21 21:40:00,
2013-01-21 15:45:00,12.7,-2.5,30.47,West,268,3.0,4.0,50,0.00,,,0.00,Wunderground v.1.15,2013-01-21 21:45:00,
2013-01-21 15:50:00,13.0,-2.2,30.47,WNW,300,3.0,4.0,50,0.00,,,0.00,Wunderground v.1.15,2013-01-21 21:50:00,
2013-01-21 15:55:00,12.9,-2.7,30.47,WNW,283,4.0,7.0,49,0.00,,,0.00,Wunderground v.1.15,2013-01-21 21:55:00,
2013-01-21 16:00:00,12.8,-2.8,30.47,NW,326,4.0,4.0,49,0.00,,,0.00,Wunderground v.1.15,2013-01-21 22:00:00,
2013-01-21 16:05:00,12.8,-2.8,30.47,NW,305,3.0,4.0,49,0.00,,,0.00,Wunderground v.1.15,2013-01-21 22:05:00,
2013-01-21 16:15:00,12.8,-2.8,30.46,NW,304,3.0,4.0,49,0.00,,,0.00,Wunderground v.1.15,2013-01-21 22:15:00,
2013-01-21 16:20:00,12.7,-2.9,30.46,WNW,287,2.0,2.0,49,0.00,,,0.00,Wunderground v.1.15,2013-01-21 22:20:00,
2013-01-21 16:25:00,12.7,-2.9,30.46,NW,325,2.0,2.0,49,0.00,,,0.00,Wunderground v.1.15,2013-01-21 22:25:00,
2013-01-21 16:35:00,12.7,-2.9,30.46,West,267,2.0,3.0,49,0.00,,,0.00,Wunderground v.1.15,2013-01-21 22:35:00,
2013-01-21 16:45:00,12.5,-3.1,30.46,WNW,290,3.0,4.0,49,0.00,,,0.00,Wunderground v.1.15,2013-01-21 22:45:00,
2013-01-21 16:55:00,12.5,-2.6,30.46,NW,305,4.0,5.0,50,0.00,,,0.00,Wunderground v.1.15,2013-01-21 22:55:00,
2013-01-21 17:00:00,12.5,-2.6,30.45,NW,315,3.0,3.0,50,0.00,,,0.00,Wunderground v.1.15,2013-01-21 23:00:00,
2013-01-21 17:05:00,12.5,-2.6,30.45,NW,313,3.0,5.0,50,0.00,,,0.00,Wunderground v.1.15,2013-01-21 23:05:00,
2013-01-21 17:15:00,12.6,-2.6,30.45,NW,306,2.0,4.0,50,0.00,,,0.00,Wunderground v.1.15,2013-01-21 23:15:00,
2013-01-21 17:20:00,12.5,-2.6,30.45,WNW,298,2.0,4.0,50,0.00,,,0.00,Wunderground v.1.15,2013-01-21 23:20:00,
2013-01-21 17:30:00,12.4,-2.7,30.45,North,355,4.0,4.0,50,0.00,,,0.00,Wunderground v.1.15,2013-01-21 23:30:00,
2013-01-21 17:40:00,12.4,-2.7,30.45,NW,319,3.0,3.0,50,0.00,,,0.00,Wunderground v.1.15,2013-01-21 23:40:00,
2013-01-21 17:45:00,12.4,-2.3,30.45,NNW,327,3.0,3.0,51,0.00,,,0.00,Wunderground v.1.15,2013-01-21 23:45:00,
2013-01-21 17:50:00,12.4,-2.3,30.44,North,360,3.0,3.0,51,0.00,,,0.00,Wunderground v.1.15,2013-01-21 23:50:00,
2013-01-21 17:55:00,12.4,-2.3,30.44,NNW,327,2.0,3.0,51,0.00,,,0.00,Wunderground v.1.15,2013-01-21 23:55:00,
2013-01-21 18:00:00,12.3,-2.4,30.44,NW,325,2.0,3.0,51,0.00,,,0.00,Wunderground v.1.15,2013-01-22 00:00:00,
2013-01-21 18:05:00,12.3,-2.4,30.45,NW,319,4.0,4.0,51,0.00,,,0.00,Wunderground v.1.15,2013-01-22 00:05:00,
2013-01-21 18:15:00,12.2,-2.1,30.45,NW,308,4.0,4.0,52,0.00,,,0.00,Wunderground v.1.15,2013-01-22 00:15:00,
2013-01-21 18:20:00,12.2,-2.1,30.45,NW,304,3.0,3.0,52,0.00,,,0.00,Wunderground v.1.15,2013-01-22 00:20:00,
2013-01-21 18:25:00,12.2,-2.1,30.45,NW,318,3.0,3.0,52,0.00,,,0.00,Wunderground v.1.15,2013-01-22 00:25:00,
2013-01-21 18:30:00,12.2,-2.1,30.45,NNW,330,3.0,6.0,52,0.00,,,0.00,Wunderground v.1.15,2013-01-22 00:30:00,
2013-01-21 18:35:00,12.1,-2.2,30.45,WNW,302,3.0,6.0,52,0.00,,,0.00,Wunderground v.1.15,2013-01-22 00:35:00,
2013-01-21 18:40:00,12.1,-2.2,30.46,NW,311,3.0,3.0,52,0.00,,,0.00,Wunderground v.1.15,2013-01-22 00:40:00,
2013-01-21 18:45:00,11.9,-2.4,30.46,NW,311,2.0,3.0,52,0.00,,,0.00,Wunderground v.1.15,2013-01-22 00:45:00,
2013-01-21 18:50:00,11.9,-2.0,30.46,NW,316,2.0,2.0,53,0.00,,,0.00,Wunderground v.1.15,2013-01-22 00:50:00,
2013-01-21 18:55:00,11.8,-2.1,30.45,North,360,2.0,2.0,53,0.00,,,0.00,Wunderground v.1.15,2013-01-22 00:55:00,
2013-01-21 19:00:00,11.7,-2.2,30.45,NNW,335,2.0,2.0,53,0.00,,,0.00,Wunderground v.1.15,2013-01-22 01:00:00,
2013-01-21 19:05:00,11.7,-2.2,30.46,NW,309,3.0,3.0,53,0.00,,,0.00,Wunderground v.1.15,2013-01-22 01:05:00,
2013-01-21 19:15:00,11.6,-1.9,30.46,North,349,3.0,4.0,54,0.00,,,0.00,Wunderground v.1.15,2013-01-22 01:15:00,
2013-01-21 19:20:00,11.6,-1.9,30.45,NW,316,3.0,3.0,54,0.00,,,0.00,Wunderground v.1.15,2013-01-22 01:20:00,
2013-01-21 19:25:00,11.7,-1.8,30.45,NW,311,2.0,3.0,54,0.00,,,0.00,Wunderground v.1.15,2013-01-22 01:25:00,
2013-01-21 19:30:00,11.7,-1.8,30.46,NNE,16,3.0,3.0,54,0.00,,,0.00,Wunderground v.1.15,2013-01-22 01:30:00,
2013-01-21 19:35:00,11.7,-1.8,30.46,NNW,337,2.0,3.0,54,0.00,,,0.00,Wunderground v.1.15,2013-01-22 01:35:00,
2013-01-21 19:40:00,11.8,-1.7,30.46,NW,318,2.0,2.0,54,0.00,,,0.00,Wunderground v.1.15,2013-01-22 01:40:00,
2013-01-21 19:50:00,11.8,-1.7,30.46,NW,313,3.0,7.0,54,0.00,,,0.00,Wunderground v.1.15,2013-01-22 01:50:00,
2013-01-21 20:00:00,11.8,-0.9,30.46,NNE,28,3.0,3.0,56,0.00,,,0.00,Wunderground v.1.15,2013-01-22 02:00:00,
2013-01-21 20:05:00,11.8,-0.9,30.46,NNE,32,3.0,3.0,56,0.00,,,0.00,Wunderground v.1.15,2013-01-22 02:05:00,
2013-01-21 20:15:00,11.7,-0.6,30.46,NE,38,2.0,2.0,57,0.00,,,0.00,Wunderground v.1.15,2013-01-22 02:15:00,
2013-01-21 20:20:00,11.6,-0.3,30.46,NE,39,2.0,3.0,58,0.00,,,0.00,Wunderground v.1.15,2013-01-22 02:20:00,
2013-01-21 20:30:00,11.6,0.0,30.46,NE,39,2.0,2.0,59,0.00,,,0.00,Wunderground v.1.15,2013-01-22 02:30:00,
2013-01-21 20:35:00,11.5,-0.1,30.46,NE,39,2.0,3.0,59,0.00,,,0.00,Wunderground v.1.15,2013-01-22 02:35:00,
2013-01-21 20:40:00,11.4,0.2,30.46,NE,38,3.0,3.0,60,0.00,,,0.00,Wunderground v.1.15,2013-01-22 02:40:00,
2013-01-21 20:45:00,11.4,0.2,30.46,NE,38,3.0,5.0,60,0.00,,,0.00,Wunderground v.1.15,2013-01-22 02:45:00,
2013-01-21 20:50:00,11.3,0.1,30.46,NNE,21,4.0,4.0,60,0.00,,,0.00,Wunderground v.1.15,2013-01-22 02:50:00,
2013-01-21 21:00:00,11.2,0.4,30.46,NE,55,4.0,4.0,61,0.00,,,0.00,Wunderground v.1.15,2013-01-22 03:00:00,
2013-01-21 21:05:00,11.1,0.3,30.46,NNE,15,4.0,4.0,61,0.00,,,0.00,Wunderground v.1.15,2013-01-22 03:05:00,
2013-01-21 21:15:00,10.9,0.1,30.46,NNE,26,5.0,7.0,61,0.00,,,0.00,Wunderground v.1.15,2013-01-22 03:15:00,
2013-01-21 21:25:00,10.7,-0.1,30.45,NNE,24,5.0,6.0,61,0.00,,,0.00,Wunderground v.1.15,2013-01-22 03:25:00,
2013-01-21 21:30:00,10.7,0.2,30.46,NE,42,5.0,5.0,62,0.00,,,0.00,Wunderground v.1.15,2013-01-22 03:30:00,
2013-01-21 21:35:00,10.6,0.1,30.46,NNE,31,5.0,5.0,62,0.00,,,0.00,Wunderground v.1.15,2013-01-22 03:35:00,
2013-01-21 21:40:00,10.5,0.0,30.46,NE,39,4.0,4.0,62,0.00,,,0.00,Wunderground v.1.15,2013-01-22 03:40:00,
2013-01-21 21:45:00,10.5,0.0,30.46,NNE,27,3.0,4.0,62,0.00,,,0.00,Wunderground v.1.15,2013-01-22 03:45:00,
2013-01-21 21:55:00,10.4,-0.1,30.46,NNE,25,3.0,4.0,62,0.00,,,0.00,Wunderground v.1.15,2013-01-22 03:55:00,
2013-01-21 22:00:00,10.4,-0.1,30.46,NNE,24,3.0,3.0,62,0.00,,,0.00,Wunderground v.1.15,2013-01-22 04:00:00,
2013-01-21 22:05:00,10.3,-0.2,30.45,NNE,28,2.0,3.0,62,0.00,,,0.00,Wunderground v.1.15,2013-01-22 04:05:00,
2013-01-21 22:15:00,10.3,-0.2,30.46,NNE,28,1.0,2.0,62,0.00,,,0.00,Wunderground v.1.15,2013-01-22 04:15:00,
2013-01-21 22:25:00,10.2,0.1,30.45,NE,56,1.0,1.0,63,0.00,,,0.00,Wunderground v.1.15,2013-01-22 04:25:00,
2013-01-21 22:30:00,10.1,-0.3,30.46,NE,56,0.0,0.0,62,0.00,,,0.00,Wunderground v.1.15,2013-01-22 04:30:00,
2013-01-21 22:40:00,10.1,-0.3,30.46,NNE,30,1.0,5.0,62,0.00,,,0.00,Wunderground v.1.15,2013-01-22 04:40:00,
2013-01-21 22:45:00,10.1,-0.3,30.45,NE,36,2.0,5.0,62,0.00,,,0.00,Wunderground v.1.15,2013-01-22 04:45:00,
2013-01-21 22:50:00,10.1,-0.3,30.46,NE,36,2.0,2.0,62,0.00,,,0.00,Wunderground v.1.15,2013-01-22 04:50:00,
2013-01-21 22:55:00,10.0,-0.4,30.45,NE,35,2.0,2.0,62,0.00,,,0.00,Wunderground v.1.15,2013-01-22 04:55:00,
2013-01-21 23:00:00,10.0,-0.4,30.45,NE,35,1.0,1.0,62,0.00,,,0.00,Wunderground v.1.15,2013-01-22 05:00:00,
2013-01-21 23:05:00,10.0,-0.4,30.45,NE,35,0.0,1.0,62,0.00,,,0.00,Wunderground v.1.15,2013-01-22 05:05:00,
2013-01-21 23:15:00,10.0,-0.4,30.45,NE,35,0.0,0.0,62,0.00,,,0.00,Wunderground v.1.15,2013-01-22 05:15:00,
2013-01-21 23:20:00,9.9,-0.5,30.45,NE,35,0.0,0.0,62,0.00,,,0.00,Wunderground v.1.15,2013-01-22 05:20:00,
2013-01-21 23:25:00,9.9,-0.5,30.45,NE,35,0.0,0.0,62,0.00,,,0.00,Wunderground v.1.15,2013-01-22 05:25:00,
2013-01-21 23:30:00,9.9,-0.2,30.45,NE,35,0.0,0.0,63,0.00,,,0.00,Wunderground v.1.15,2013-01-22 05:30:00,
2013-01-21 23:35:00,9.9,-0.2,30.45,NE,35,0.0,0.0,63,0.00,,,0.00,Wunderground v.1.15,2013-01-22 05:35:00,
2013-01-21 23:40:00,9.9,-0.2,30.45,NE,35,0.0,0.0,63,0.00,,,0.00,Wunderground v.1.15,2013-01-22 05:40:00,
2013-01-21 23:45:00,9.9,-0.2,30.45,NE,35,0.0,0.0,63,0.00,,,0.00,Wunderground v.1.15,2013-01-22 05:45:00,
2013-01-21 23:50:00,10.0,-0.1,30.45,NE,35,0.0,0.0,63,0.00,,,0.00,Wunderground v.1.15,2013-01-22 05:50:00,
2013-01-21 23:55:00,10.1,0.0,30.45,NE,35,0.0,0.0,63,0.00,,,0.00,Wunderground v.1.15,2013-01-22 05:55:00,